User: anonymous   Login
Location: Bergnershof
(48.9468°N, 10.9431°E)
Time: 21:41:27
(UTC+00:00)
Language:

Gbstr 26 Del rocket - Orbit

View from above orbital plane
View from above orbital plane
View from above satellite
View from above satellite

Ground track
Ground track

The orbit data is extracted from the following two-line orbital elements,

1 25876U 99041E   21125.36146545 -.00000117  00000-0  19921-4 0  9992
2 25876  51.7643 119.4256 0530836 202.9751 154.6616 14.04567703113882
Epoch (UTC): 05 May 2021 08:40:30
Eccentricity: 0.0530836
inclination: 51.7643°
perigee height: 493 km
apogee height: 1263 km
right ascension of ascending node: 119.4256°
argument of perigee: 202.9751°
revolutions per day: 14.04567703
mean anomaly at epoch: 154.6616°
orbit number at epoch: 11388

The dashed part of the orbit path shows where the satellite is in the earth's shadow,  

DLR